This demonstration page uses our WeatherBlox Daily Observations layout. Learn more.

Hourly Observations for December 20, 2018

Temp ( °F °C ) Dew Point ( °F °C ) Humidity (%) Winds ( mph kmh ) Pressure ( in mb ) Visibility ( mi km ) Precip ( " mm )
12:15 am 00:15 Clear 32 0 32 0 100 100 Calm 30.12 1020 10 16.09344 0 0
12:35 am 00:35 Clear 30 -1 30 -1 100 100 Calm 30.12 1020 10 16.09344 0 0
1:15 am 01:15 Clear 32 0 32 0 100 100 Calm 30.09 1019 10 16.09344 0 0
1:35 am 01:35 Clear 32 0 32 0 100 100 Calm 30.09 1019 10 16.09344 0 0
1:55 am 01:55 Clear 30 -1 30 -1 100 100 N 3 6 30.09 1019 10 16.09344 0 0
2:10 am 02:10 Clear 32 0 32 0 100 100 Calm 30.09 1019 10 16.09344 0 0
2:35 am 02:35 Clear 32 0 32 0 100 100 Calm 30.12 1020 10 16.09344 0 0
2:55 am 02:55 Clear 30 -1 30 -1 100 100 Calm 30.09 1019 10 16.09344 0 0
3:15 am 03:15 Clear 28 -2 28 -2 100 100 Calm 30.09 1019 10 16.09344 0 0
3:35 am 03:35 Clear 30 -1 30 -1 100 100 Calm 30.09 1019 10 16.09344 0 0
3:55 am 03:55 Clear 28 -2 28 -2 100 100 Calm 30.09 1019 10 16.09344 0 0
4:15 am 04:15 Clear 30 -1 30 -1 100 100 NE 3 6 30.09 1019 10 16.09344 0 0
4:35 am 04:35 Clear 30 -1 30 -1 100 100 Calm 30.09 1019 10 16.09344 0 0
4:55 am 04:55 Clear 30 -1 30 -1 100 100 Calm 30.09 1019 10 16.09344 0 0
5:15 am 05:15 Clear 28 -2 28 -2 100 100 Calm 30.09 1019 10 16.09344 0 0
5:35 am 05:35 Mostly Cloudy 30 -1 30 -1 100 100 N 6 9 30.09 1019 10 16.09344 0 0
5:55 am 05:55 Cloudy 32 0 32 0 100 100 Calm 30.09 1019 10 16.09344 0 0
6:15 am 06:15 Partly Cloudy 32 0 32 0 100 100 Calm 30.09 1019 10 16.09344 0 0
6:35 am 06:35 Mostly Cloudy 32 0 32 0 100 100 NE 3 6 30.09 1019 10 16.09344 0 0
6:55 am 06:55 Cloudy 32 0 32 0 100 100 Calm 30.09 1019 10 16.09344 0 0
7:15 am 07:15 Cloudy 32 0 32 0 100 100 Calm 30.09 1019 10 16.09344 0 0
7:35 am 07:35 Cloudy 34 1 32 0 93 93 Calm 30.09 1019 10 16.09344 0 0
7:55 am 07:55 Cloudy 34 1 32 0 93 93 Calm 30.09 1019 10 16.09344 0 0
8:15 am 08:15 Cloudy 34 1 32 0 93 93 Calm 30.09 1019 10 16.09344 0 0
8:35 am 08:35 Cloudy 34 1 32 0 93 93 Calm 30.09 1019 10 16.09344 0 0
8:55 am 08:55 Cloudy 34 1 34 1 100 100 Calm 30.09 1019 10 16.09344 0 0
9:15 am 09:15 Cloudy 36 2 34 1 93 93 Calm 30.09 1019 10 16.09344 0 0
9:35 am 09:35 Cloudy 36 2 34 1 93 93 Calm 30.09 1019 10 16.09344 0 0
9:55 am 09:55 Cloudy 36 2 34 1 93 93 Calm 30.09 1019 10 16.09344 0 0
10:15 am 10:15 Cloudy 36 2 34 1 93 93 Calm 30.09 1019 10 16.09344 0 0
10:35 am 10:35 Cloudy 37 3 34 1 87 87 Calm 30.09 1019 10 16.09344 0 0
10:55 am 10:55 Cloudy 36 2 34 1 93 93 Calm 30.09 1019 10 16.09344 0 0
11:15 am 11:15 Cloudy 37 3 34 1 87 87 Calm 30.06 1018 10 16.09344 0 0
11:35 am 11:35 Cloudy 37 3 36 2 93 93 Calm 30.06 1018 10 16.09344 0 0
11:55 am 11:55 Cloudy 37 3 36 2 93 93 Calm 30.03 1017 10 16.09344 0 0
12:15 pm 12:15 Cloudy 39 4 36 2 87 87 NE 3 6 30.03 1017 10 16.09344 0 0
12:35 pm 12:35 Cloudy 39 4 36 2 87 87 NNE 5 7 30 1016 10 16.09344 0 0
12:55 pm 12:55 Cloudy 39 4 36 2 87 87 Calm 30 1016 10 16.09344 0 0
1:15 pm 13:15 Cloudy 39 4 36 2 87 87 NE 5 7 30 1016 10 16.09344 0 0
1:35 pm 13:35 Cloudy 39 4 36 2 87 87 ENE 5 7 30 1016 10 16.09344 0 0
1:55 pm 13:55 Cloudy with Mist and Fog 37 3 37 3 100 100 NE 3 6 29.97 1015 2 3.218688 0 0
2:15 pm 14:15 Cloudy with Mist and Fog 37 3 37 3 100 100 Calm 29.97 1015 1.25 2.01168 0 0
2:35 pm 14:35 Cloudy with Light Rain 37 3 37 3 100 100 NE 3 6 29.97 1015 1 1.609344 0 0
2:55 pm 14:55 Cloudy with Light Rain 37 3 37 3 100 100 NE 5 7 29.94 1014 1 1.609344 0 0
3:15 pm 15:15 Cloudy with Light Rain 37 3 37 3 100 100 NE 5 7 29.94 1014 0.75 1.207008 0 0
3:35 pm 15:35 Cloudy with Light Rain 37 3 37 3 100 100 NE 5 7 29.94 1014 1 1.609344 0.01 0.254
3:55 pm 15:55 Cloudy with Light Rain 37 3 37 3 100 100 NE 7 11 29.91 1013 1 1.609344 0.02 0.508
4:15 pm 16:15 Cloudy with Light Rain 37 3 37 3 100 100 NE 6 9 29.91 1013 1.25 2.01168 0.01 0.254
4:35 pm 16:35 Cloudy with Rain 37 3 37 3 100 100 NE 7 11 29.91 1013 2 3.218688 0.03 0.762
4:55 pm 16:55 Cloudy with Rain 37 3 37 3 100 100 NE 5 7 29.88 1012 2 3.218688 0.06 1.524
5:15 pm 17:15 Cloudy with Rain 37 3 37 3 100 100 NE 6 9 29.85 1011 2.5 4.02336 0.01 0.254
5:35 pm 17:35 Cloudy with Drizzle 37 3 37 3 100 100 NNE 3 6 29.85 1011 2.5 4.02336 0.01 0.254
5:55 pm 17:55 Cloudy with Rain 37 3 37 3 100 100 NNE 6 9 29.83 1010 2 3.218688 0.03 0.762
6:15 pm 18:15 Cloudy with Light Rain 36 2 36 2 100 100 NNE 7 11 29.83 1010 2 3.218688 0.01 0.254
6:35 pm 18:35 Cloudy with Rain 36 2 36 2 100 100 NE 7 11 29.8 1009 2.5 4.02336 0.01 0.254
6:55 pm 18:55 Cloudy with Rain 36 2 36 2 100 100 Calm 29.8 1009 1.75 2.816352 0.04 1.016
7:15 pm 19:15 Cloudy with Light Rain 37 3 37 3 100 100 N 6 9 29.77 1008 2.5 4.02336 0.03 0.762
7:35 pm 19:35 Cloudy with Rain 36 2 36 2 100 100 NNE 6 9 29.77 1008 2 3.218688 0.06 1.524
7:55 pm 19:55 Cloudy with Rain 36 2 36 2 100 100 NNE 6 9 29.74 1007 2.5 4.02336 0.09 2.286
8:15 pm 20:15 Cloudy with Light Rain 36 2 36 2 100 100 NNE 3 6 29.71 1006 3 4.828032 0.01 0.254
8:35 pm 20:35 Cloudy with Light Rain 36 2 36 2 100 100 NNE 3 6 29.71 1006 2.5 4.02336 0.03 0.762
8:55 pm 20:55 Cloudy with Light Rain 37 3 37 3 100 100 Calm 29.68 1005 2 3.218688 0.05 1.27
9:15 pm 21:15 Cloudy with Light Rain 37 3 37 3 100 100 NNE 5 7 29.65 1004 2.5 4.02336 0 0
9:35 pm 21:35 Cloudy with Light Rain 37 3 37 3 100 100 NNE 3 6 29.62 1003 1.25 2.01168 0.01 0.254
9:55 pm 21:55 Cloudy with Rain 37 3 37 3 100 100 NE 3 6 29.62 1003 1 1.609344 0.03 0.762
10:15 pm 22:15 Cloudy with Rain 39 4 39 4 100 100 ENE 5 7 29.56 1001 0.75 1.207008 0.03 0.762
10:35 pm 22:35 Cloudy with Light Rain 43 6 43 6 100 100 ESE 3 6 29.53 1000 0.5 0.804672 0.04 1.016
10:55 pm 22:55 Cloudy with Light Rain 48 9 48 9 100 100 ESE 9 15 29.5 999 1.75 2.816352 0.04 1.016
11:15 pm 23:15 Cloudy with Light Rain 52 11 52 11 100 100 ESE 12 19 29.47 998 5 8.04672 0 0
11:35 pm 23:35 Cloudy with Light Rain 54 12 54 12 100 100 SE 9 15 29.44 997 3 4.828032 0.09 2.286
11:55 pm 23:55 Cloudy with Rain 54 12 54 12 100 100 SE 9 15 29.44 997 5 8.04672 0.11 2.794

Powered by AerisWeather